527  
ASUS44 KLIX 210506  
RWRLA  
LOUISIANA WEATHER ROUNDUP  
NATIONAL WEATHER SERVICE NEW ORLEANS LA  
1200 AM CDT SAT APR 21 2018  
 
NOTE: "FAIR" INDICATES FEW OR NO CLOUDS BELOW 12,000 FEET WITH NO  
SIGNIFICANT WEATHER AND/OR S TO VISIBILITY
.  
SKY/WX - SKY CONDITION AND SIGNIFICANT WEATHER.  
TMP - AIR TEMPERATURE. DP - DEWPOINT TEMPERATURE.  
RH - RELATIVE HUMIDITY. PRES - PRESSURE.  
HX - HEAT INDEX. WCI - WIND CHILL INDEX.  
 
* THESE STATIONS ARE NOT NWS OR FAA STATIONS AND ARE NOT UNDER  
NWS QUALITY CONTROL.  
 
LAZ040-048-061>063-065-066-069-210600-  
SOUTHEAST LOUISIANA  
 
CITY SKY/WX TMP DP RH WIND PRES REMARKS
 
N.O. INTL ARPT MOCLDY 55 51 86 CALM 30.17F  
N.O. LAKEFRONT FAIR 62 47 57 CALM 30.18F  
N.O. DOWNTOWN* FAIR 63 46 54 CALM 30.18F  
RESERVE* FAIR 56 51 83 CALM 30.18S  
SLIDELL FAIR 50 48 93 N3 30.17F  
BATON ROUGE FAIR 54 49 83 NE3 30.18F  
BOOTHVILLE FAIR 59 53 80 CALM 30.18S  
BELLE CHASSE FAIR 49 49 100 CALM 30.17F  
BOGALUSA* FAIR 51 48 89 CALM 30.20S  
GALLIANO* FAIR 55 50 85 CALM 30.17F  
NEW ROADS* FAIR 52 49 90 CALM 30.19S  
GONZALES* FAIR 53 51 94 CALM 30.18S  
HAMMOND* FAIR 50 48 93 CALM 30.19S  
HOUMA* FAIR 56 52 86 CALM 30.17S  
PORT FOURCHON* CLEAR 64 50 59 E7 30.17S  
 

 
 
LAZ041-044-053-054-210600-  
SOUTHWEST LOUISIANA  
 
CITY SKY/WX TMP DP RH WIND PRES REMARKS
 
LAKE CHARLES FAIR 61 50 67 E7 30.13F  
LAFAYETTE FAIR 58 52 80 CALM 30.17S  
PATTERSON FAIR 55 52 89 CALM 30.17F  
SALT POINT N/A N/A N/A N/A CALM 30.15F  
NEW IBERIA FAIR 59 46 62 E6 30.17F  
CHENAULT AIRPK FAIR 60 49 69 E8 30.14S  
 

 
 
LAZ027-028-210600-  
CENTRAL LOUISIANA  
 
CITY SKY/WX TMP DP RH WIND PRES REMARKS
 
FORT POLK MOCLDY 56 45 64 E5 30.14S  
ALEXANDRIA INT FAIR 55 46 71 SE3 30.15F  
ALEXANDRIA FAIR 47 47 100 CALM 30.17F  
 

 
 
LAZ001-002-210600-  
NORTHWEST LOUISIANA  
 
CITY SKY/WX TMP DP RH WIND PRES REMARKS
 
SHREVEPORT FAIR 54 43 66 E6 30.14F  
BARKSDALE AFB FAIR 50 40 68 E6 30.14F  
DTN SHREVEPORT FAIR 56 41 57 E6 30.15F  
 

 
 
LAZ014-016-210600-  
NORTHEAST LOUISIANA  
 
CITY SKY/WX TMP DP RH WIND PRES REMARKS
 
MONROE FAIR 49 44 83 CALM 30.20S  
TALLULAH FAIR 52 51 97 CALM 30.20S  
 

 
 
 
 
CLICK HERE TO GO TO PREVIOUS BULLETINS.

The Nexlab LA Page Main Text Page